Sacramento, CA

5:39 AM PST on January 18, 2017 (GMT -0800)
Sacramento Executive

Weather History for KSAC - July, 2014

Change the Weather History Date:

Wednesday, July 9, 2014

  Actual Average Record
Temperature  
Mean Temperature 75 °F -  
Max Temperature 90 °F 92 °F 108 °F (1961)
Min Temperature 59 °F 58 °F 49 °F (1983)
Degree Days  
Heating Degree Days 0    
Cooling Degree Days 10    
Growing Degree Days 24 (Base 50)    
Moisture  
Dew Point 56 °F    
Average Humidity 57    
Maximum Humidity 84    
Minimum Humidity 29    
Precipitation  
Precipitation 0.00 in 0.00 in 0.01 in (1950)
Month to date precipitation 0.00 0.01  
Year to date precipitation 7.89 11.91  
Since 1 July precipitation 0.00  
Sea Level Pressure  
Sea Level Pressure 29.84 in    
Wind  
Wind Speed 7 mph (SSW)    
Max Wind Speed 15 mph    
Max Gust Speed 18 mph    
Visibility 10 miles    
Events      
T = Trace of Precipitation, MM = Missing Value Source: NWS Daily Summary

Daily Weather History Graph

Daily Weather History Graph

Search for Another Location

Airport or City:

Trip Planner

Search our weather history database for the weather conditions in past years. The results will help you decide how hot, cold, wet, or windy it might be!

Date:

Astronomy

Jul. 09, 2014 Rise Set
Actual Time 5:50 AM PDT 8:32 PM PDT
Civil Twilight 5:18 AM PDT 9:03 PM PDT
Nautical Twilight 4:39 AM PDT 9:42 PM PDT
Astronomical Twilight 3:55 AM PDT 10:26 PM PDT
Moon 5:49 PM PDT (7/9) 3:11 AM PDT (7/9)
Length of Visible Light 15h 44m
Length of Day
14h 42m
Waxing Gibbous, 90% of the Moon is Illuminated
Jul 9
Waxing Gibbous
Jul 12
Full
Jul 18
Last Quarter
Jul 26
New
Aug 3
First Quarter

Hourly Weather History & Observations

Time (PDT) Temp. Heat Index Dew Point Humidity Pressure Visibility Wind Dir Wind Speed Gust Speed Precip Events Conditions
12:53 AM 64.0 °F - 55.9 °F 75% 29.84 in 10.0 mi Variable 4.6 mph - N/A   Clear
1:53 AM 64.0 °F - 55.0 °F 73% 29.84 in 10.0 mi SSE 3.5 mph - N/A   Clear
2:53 AM 63.0 °F - 55.0 °F 75% 29.84 in 10.0 mi SSE 5.8 mph - N/A   Clear
3:53 AM 62.1 °F - 55.0 °F 78% 29.84 in 10.0 mi South 4.6 mph - N/A   Clear
4:53 AM 61.0 °F - 55.0 °F 81% 29.85 in 10.0 mi South 6.9 mph - N/A   Clear
5:53 AM 60.1 °F - 55.0 °F 83% 29.86 in 10.0 mi SSW 8.1 mph - N/A   Clear
6:53 AM 60.1 °F - 55.0 °F 83% 29.88 in 10.0 mi SSW 5.8 mph - N/A   Clear
7:53 AM 64.0 °F - 55.9 °F 75% 29.89 in 10.0 mi SSW 8.1 mph - N/A   Clear
8:53 AM 66.9 °F - 57.0 °F 70% 29.90 in 10.0 mi SSW 11.5 mph 17.3 mph N/A   Clear
9:53 AM 71.1 °F - 57.9 °F 63% 29.90 in 10.0 mi SSW 9.2 mph - N/A   Clear
10:53 AM 73.9 °F - 57.9 °F 57% 29.91 in 10.0 mi SSW 6.9 mph - N/A   Clear
11:53 AM 78.1 °F - 57.9 °F 50% 29.89 in 10.0 mi SSW 9.2 mph - N/A   Clear
12:53 PM 81.0 °F 81.1 °F 57.9 °F 45% 29.88 in 10.0 mi SW 10.4 mph 18.4 mph N/A   Clear
1:53 PM 84.9 °F 83.9 °F 57.0 °F 38% 29.85 in 10.0 mi WSW 11.5 mph 18.4 mph N/A   Clear
2:53 PM 88.0 °F 86.1 °F 55.0 °F 32% 29.83 in 10.0 mi SW 9.2 mph - N/A   Clear
3:53 PM 89.1 °F 86.9 °F 54.0 °F 30% 29.82 in 10.0 mi WSW 9.2 mph - N/A   Clear
4:53 PM 89.6 °F 87.7 °F 55.4 °F 31% 29.79 in 10.0 mi SSW 10.4 mph 16.1 mph N/A   Clear
5:53 PM 87.1 °F 85.3 °F 55.0 °F 33% 29.79 in 10.0 mi SSW 9.2 mph 17.3 mph N/A   Clear
6:53 PM 84.0 °F 83.0 °F 55.9 °F 38% 29.78 in 10.0 mi SSW 11.5 mph - N/A   Clear
7:53 PM 75.0 °F - 57.0 °F 53% 29.79 in 10.0 mi SW 9.2 mph 19.6 mph N/A   Clear
8:53 PM 70.0 °F - 55.9 °F 61% 29.80 in 10.0 mi SSW 11.5 mph - N/A   Clear
9:53 PM 66.0 °F - 55.9 °F 70% 29.82 in 10.0 mi SW 11.5 mph - N/A   Clear
10:53 PM 64.9 °F - 55.9 °F 73% 29.83 in 10.0 mi SSW 9.2 mph - N/A   Clear
11:53 PM 63.0 °F - 55.9 °F 78% 29.84 in 10.0 mi South 5.8 mph - N/A   Clear